CAPE
755 1020 1226 1403 1505 1626 1792 2034 2230 2237 2118 1173 1109 1011 1551 1386 2275 2305 2387 2516 2483 2401 2311 2190 2123 1825 1493 1139 594 314 89 447 673 809 738 349 78 46 144 248 136 22 10
1149 1364 1664 1780 1884 1859 1856 1840 1959 2076 1958 2065 2283 2569 2671 2756 2834 2782 2743 2835 2790 2673 2537 2309 2360 2031 1746 1383 966 681 924 834 700 350 29 134 287 404 259 102 39 0 0
1499 1149 749 558 532 394 234 65 78 144 184 399 733 942 1136 1383 1651 2251 2813 2665 2407 2639 2692 2585 2506 2179 2058 1282 1197 1073 684 474 205 173 191 391 306 178 70 21 25 55 64
14 48 124 1 0 0 0 0 0 0 0 0 10 78 194 433 949 1371 1536 2482 2651 2572 2517 2486 2542 2355 2220 1532 1123 973 700 387 119 208 369 270 205 98 39 51 18 1 0
0 0 0 0 0 0 0 0 0 0 0 0 0 0 2 65 217 710 1375 1305 1639 2134 2397 2494 2452 2235 2028 1601 1193 824 447 240 165 205 273 195 201 105 35 1 0 1 1
0 0 0 0 0 0 0 0 0 0 0 0 0 0 0 0 53 216 460 923 935 1581 1721 1927 2088 1936 1782 1414 565 208 58 128 157 209 191 243 130 36 5 7 0 0 0
0 0 0 0 0 0 0 0 0 0 0 0 0 0 0 0 0 6 126 267 824 1202 1476 1819 1754 1504 1282 846 353 106 51 139 355 316 353 254 157 29 13 0 1 0 0
0 0 0 0 0 0 0 0 0 0 0 0 0 0 0 0 0 1 132 114 288 989 1388 1585 1669 1392 891 457 187 46 46 76 208 132 98 11 0 0 3 0 0 0 0
0 0 0 0 0 0 0 0 0 0 0 0 0 1 0 0 0 0 0 41 281 823 1131 1573 1308 973 576 138 13 30 3 0 0 0 0 0 0 0 0 0 0 0 0
0 0 0 0 0 0 0 0 0 1 1 0 0 0 2 0 0 0 105 294 613 804 1042 1160 916 843 381 35 10 4 0 0 0 0 0 0 0 0 0 0 0 0 0
0 0 0 0 0 0 0 0 0 1 1 0 0 0 2 1 0 0 11 175 592 769 745 749 730 562 267 1 0 0 0 0 0 0 0 0 0 0 0 0 0 0 0
0 0 0 0 0 0 0 0 1 0 0 3 1 0 4 2 2 2 0 33 294 505 426 148 58 124 136 0 0 0 0 0 0 0 0 0 0 0 0 0 0 0 0
0 0 0 0 0 0 0 0 0 0 1 2 2 2 1 1 0 0 3 1 2 0 2 5 3 1 3 0 0 0 0 0 0 0 0 0 0 0 0 0 0 0 0
0 0 0 0 0 0 0 0 0 0 0 0 0 0 1 0 0 0 2 2 3 1 2 1 1 2 1 0 2 0 0 0 0 0 0 0 0 0 0 0 0 0 0
0 0 0 0 0 0 0 0 0 0 0 0 0 0 0 0 0 0 0 1 1 1 1 0 0 0 1 1 0 0 0 0 0 0 0 0 0 0 0 0 0 0 0
0 0 0 0 0 0 0 0 0 0 0 0 0 0 0 0 0 0 0 0 0 0 0 0 0 0 0 0 0 0 0 1 24 7 2 0 0 0 0 0 0 0 0
0 0 0 0 0 0 0 0 0 0 0 0 0 0 0 0 0 0 0 0 0 0 0 0 0 0 0 0 0 0 0 0 0 0 1 0 0 0 0 0 0 0 0
0 0 0 0 0 0 0 0 0 0 0 0 0 0 0 0 0 0 0 0 0 0 0 0 0 10 20 2 0 0 0 0 9 4 6 9 1 0 0 0 0 0 0
0 0 0 0 0 0 0 0 0 0 0 0 0 0 0 0 0 0 0 0 5 3 0 0 3 12 16 9 0 0 0 0 10 1 4 2 0 1 0 0 0 0 0
0 0 0 0 0 0 0 0 0 0 0 0 0 0 0 0 0 0 0 2 4 12 17 1 0 0 2 4 4 13 4 2 10 0 0 0 0 0 0 0 0 0 0
0 0 0 0 0 0 0 0 0 0 0 0 0 0 0 0 0 0 0 0 7 15 7 32 10 7 21 5 24 14 25 0 0 0 0 0 0 0 0 0 0 0 0
0 0 0 0 0 0 0 0 0 0 0 0 0 0 0 0 0 0 0 0 0 0 1 6 11 8 5 13 28 11 21 16 9 1 0 0 0 0 0 0 0 0 0
7 11 1 0 0 0 3 1 2 9 7 0 0 1 0 1 4 6 2 1 0 0 0 0 2 5 9 15 25 42 37 4 7 0 1 0 0 0 0 0 0 0 1
8 23 23 29 25 20 12 13 11 4 4 0 0 0 1 0 13 21 12 13 10 11 4 2 0 3 3 11 18 11 0 0 0 0 0 0 0 0 0 0 0 0 0
24 18 18 23 20 0 0 0 0 0 0 0 0 0 6 3 0 5 18 14 4 5 23 29 18 6 0 6 5 2 1 0 1 0 1 0 0 0 0 0 0 0 0
30 3 4 0 1 0 0 0 0 0 3 7 1 9 3 5 0 2 13 6 3 1 1 1 0 0 19 9 4 1 0 0 0 0 0 0 0 0 0 0 0 0 0
CIN
-335 -316 -292 -258 -204 -183 -156 -114 -76 -71 -89 -205 -206 -260 -196 -207 -89 -82 -93 -83 -82 -81 -73 -75 -68 -85 -53 -54 -113 -172 -237 -87 -18 -49 -76 -115 -178 -159 -144 -137 -170 -150 -56
-337 -314 -272 -252 -219 -179 -163 -139 -107 -83 -112 -91 -59 -55 -68 -58 -45 -45 -53 -44 -50 -57 -52 -45 -45 -70 -53 -54 -82 -108 -81 -61 -40 -78 -200 -161 -128 -67 -87 -152 -173 -0 -0
-390 -416 -477 -494 -450 -447 -494 -429 -431 -475 -459 -405 -339 -291 -273 -242 -199 -123 -43 -51 -77 -51 -42 -43 -37 -52 -44 -86 -85 -62 -95 -110 -177 -185 -164 -82 -102 -102 -131 -131 -144 -95 -108
-801 -679 -569 -43 -0 -0 -0 -0 -0 -0 -0 -0 -397 -562 -528 -452 -316 -234 -189 -51 -31 -43 -51 -55 -44 -51 -44 -69 -91 -98 -130 -163 -221 -164 -93 -102 -86 -89 -88 -65 -67 -0 -0
-0 -0 -0 -0 -0 -0 -0 -0 -0 -0 -0 -0 -0 -0 -143 -644 -509 -344 -179 -181 -123 -64 -47 -41 -50 -65 -73 -87 -123 -145 -199 -255 -228 -167 -156 -159 -110 -87 -80 -0 -0 -0 -0
-0 -0 -0 -0 -0 -0 -0 -0 -0 -0 -0 -0 -0 -0 -0 -0 -621 -473 -352 -217 -225 -88 -55 -61 -58 -79 -81 -115 -245 -319 -328 -307 -248 -207 -197 -159 -177 -194 -145 -63 -0 -0 -0
-0 -0 -0 -0 -0 -0 -0 -0 -0 -0 -0 -0 -0 -0 -0 -0 -0 -287 -484 -385 -200 -124 -60 -29 -42 -91 -111 -180 -258 -294 -336 -271 -188 -145 -110 -127 -147 -228 -226 -0 -149 -0 -0
-0 -0 -0 -0 -0 -0 -0 -0 -0 -0 -0 -0 -0 -0 -0 -0 -0 -218 -481 -493 -379 -104 -28 -26 -28 -72 -157 -203 -243 -283 -284 -238 -185 -187 -182 -57 -0 -0 -113 -0 -0 -0 -0
-0 -0 -0 -0 -0 -0 -0 -0 -0 -0 -0 -0 -0 -0 -0 -0 -0 -0 -0 -543 -374 -101 -37 -23 -39 -90 -151 -209 -179 -196 -247 -0 -0 -0 -0 -0 -0 -0 -0 -0 -0 -0 -0
-0 -0 -0 -0 -0 -0 -0 -0 -0 -0 -0 -0 -0 -0 -0 -0 -0 -0 -411 -323 -163 -58 -28 -23 -43 -65 -163 -256 -194 -166 -0 -0 -0 -0 -0 -0 -0 -0 -0 -0 -0 -0 -0
-0 -0 -0 -0 -0 -0 -0 -0 -0 -0 -0 -0 -0 -0 -0 -0 -0 -0 -490 -355 -108 -31 -38 -40 -49 -86 -147 -130 -0 -0 -0 -0 -0 -0 -0 -0 -0 -0 -0 -0 -0 -0 -0
-0 -0 -0 -0 -0 -0 -0 -0 -0 -0 -0 -0 -0 -0 -0 -0 -0 -0 -0 -371 -168 -62 -76 -242 -352 -166 -119 -0 -0 -0 -0 -0 -0 -0 -0 -0 -0 -0 -0 -0 -0 -0 -0
-0 -0 -0 -0 -0 -0 -0 -0 -0 -0 -0 -0 -0 -0 -0 -0 -0 -0 -0 -0 -38 -0 -0 -0 -0 -0 -0 -0 -0 -0 -0 -0 -0 -0 -0 -0 -0 -0 -0 -0 -0 -0 -0
-0 -0 -0 -0 -0 -0 -0 -0 -0 -0 -0 -0 -0 -0 -0 -0 -0 -0 -0 -0 -0 -0 -0 -0 -0 -0 -0 -0 -0 -0 -0 -0 -0 -0 -0 -0 -0 -0 -0 -0 -0 -0 -0
-0 -0 -0 -0 -0 -0 -0 -0 -0 -0 -0 -0 -0 -0 -0 -0 -0 -0 -0 -0 -0 -0 -0 -0 -0 -0 -0 -0 -0 -0 -0 -0 -0 -0 -0 -0 -0 -0 -0 -0 -0 -0 -0
-0 -0 -0 -0 -0 -0 -0 -0 -0 -0 -0 -0 -0 -0 -0 -0 -0 -0 -0 -0 -0 -0 -0 -0 -0 -0 -0 -0 -0 -0 -0 -31 -56 -71 -54 -0 -0 -0 -0 -0 -0 -0 -0
-0 -0 -0 -0 -0 -0 -0 -0 -0 -0 -0 -0 -0 -0 -0 -0 -0 -0 -0 -0 -0 -0 -0 -0 -0 -0 -0 -0 -0 -0 -0 -0 -0 -0 -79 -0 -0 -0 -0 -0 -0 -0 -0
-0 -0 -0 -0 -0 -0 -0 -0 -0 -0 -0 -0 -0 -0 -0 -0 -0 -0 -0 -0 -0 -0 -0 -0 -0 -21 -17 -7 -0 -0 -44 -0 -29 -45 -39 -31 -11 -0 -0 -0 -0 -0 -0
-0 -0 -0 -0 -0 -0 -0 -0 -0 -0 -0 -0 -0 -0 -0 -0 -0 -0 -0 -4 -12 -10 -0 -24 -28 -42 -43 -39 -0 -0 -0 -0 -57 -31 -25 -27 -5 -57 -0 -0 -0 -0 -0
-0 -0 -0 -0 -0 -0 -0 -0 -0 -0 -0 -0 -0 -0 -0 -0 -0 -0 -0 -32 -18 -9 -1 -23 -0 -6 -41 -45 -53 -53 -53 -25 -39 -12 -0 -0 -0 -0 -0 -0 -0 -0 -0
-0 -0 -0 -0 -0 -0 -0 -0 -0 -0 -0 -0 -0 -0 -0 -0 -0 -0 -0 -0 -49 -40 -33 -18 -42 -47 -50 -51 -43 -39 -43 -3 -0 -0 -0 -0 -0 -0 -0 -0 -0 -0 -0
-0 -0 -0 -0 -0 -0 -30 -0 -0 -0 -0 -0 -0 -0 -0 -0 -0 -0 -0 -0 -0 -0 -98 -54 -63 -64 -81 -57 -46 -47 -44 -44 -52 -18 -0 -0 -0 -0 -0 -0 -0 -0 -0
-52 -55 -18 -6 -0 -0 -54 -41 -65 -122 -94 -0 -0 -53 -0 -85 -78 -76 -82 -48 -0 -0 -0 -0 -75 -86 -94 -81 -76 -62 -45 -38 -46 -4 -34 -0 -0 -0 -0 -0 -0 -0 -26
-67 -66 -62 -53 -66 -65 -52 -44 -65 -76 -74 -0 -0 -0 -68 -17 -69 -59 -67 -79 -85 -79 -69 -71 -30 -73 -60 -59 -85 -76 -13 -12 -0 -0 -0 -0 -0 -0 -11 -49 -0 -0 -0
-73 -66 -57 -58 -54 -0 -0 -0 -0 -3 -22 -0 -0 -0 -53 -51 -19 -58 -67 -76 -66 -63 -56 -57 -59 -51 -0 -49 -66 -68 -68 -0 -36 -0 -81 -3 -7 -0 -0 -0 -0 -0 -0
-55 -42 -63 -0 -35 -0 -0 -0 -0 -0 -37 -52 -21 -67 -58 -66 -21 -30 -71 -68 -62 -40 -27 -22 -0 -0 -56 -64 -78 -57 -0 -0 -0 -0 -0 -0 -0 -0 -0 -0 -0 -0 -0
Wind_Speed
2 2 4 8 10 11 11 13 16 19 19 21 21 21 24 26 24 22 20 22 22 23 23 24 23 23 23 21 16 14 10 10 14 20 22 30 34 35 34 28 31 30 29
3 4 9 13 14 14 16 18 20 23 23 24 25 26 27 27 27 27 28 28 25 24 23 24 22 24 22 20 18 17 13 12 18 17 22 25 30 31 26 28 30 28 26
8 10 12 15 16 18 21 23 24 25 26 27 27 29 30 31 32 32 32 31 30 29 26 25 25 23 22 21 20 17 15 16 18 18 19 17 24 26 23 23 23 21 20
11 13 14 17 20 22 24 27 28 28 30 31 32 32 33 36 36 37 37 37 36 33 29 27 26 23 23 19 20 16 16 18 19 18 16 16 18 21 19 16 14 14 14
15 17 19 21 24 27 29 30 31 32 34 35 36 37 39 40 40 40 40 40 40 39 35 31 27 24 23 21 20 18 19 21 20 17 19 18 15 13 13 14 9 11 18
19 21 24 27 28 29 31 33 35 37 38 39 41 42 43 41 41 42 42 42 41 38 37 34 28 24 22 20 19 18 16 17 19 18 18 16 12 12 10 8 9 12 14
22 25 27 28 30 32 33 35 37 39 40 41 42 43 45 45 45 44 45 44 42 38 35 31 27 22 19 20 20 19 19 18 17 15 15 13 11 9 8 8 9 12 13
23 26 28 30 32 33 35 37 39 40 41 42 44 45 45 44 44 44 43 42 40 37 31 26 22 19 19 19 17 20 18 17 14 13 13 13 12 8 7 8 8 9 10
26 28 30 31 34 36 38 40 40 41 42 42 42 44 43 42 41 45 43 39 35 34 28 23 19 18 16 13 15 17 17 15 13 12 11 10 8 7 7 6 7 6 9
28 29 29 31 33 35 37 38 39 39 39 39 41 38 36 39 40 44 40 32 29 29 25 20 17 16 13 11 9 9 11 9 7 7 7 8 8 8 9 8 5 6 8
26 27 29 30 33 34 36 37 38 38 38 38 38 36 35 35 37 38 35 26 24 25 23 23 19 14 13 11 8 8 7 5 4 3 4 6 8 8 9 9 9 6 8
25 27 29 30 31 33 34 36 37 38 37 36 36 34 34 35 34 34 31 26 24 23 24 23 23 16 13 12 10 7 5 3 2 1 3 5 6 8 9 10 11 11 11
25 27 28 28 29 31 33 35 37 37 36 35 34 34 34 33 33 32 30 27 24 22 22 19 18 15 18 14 11 8 6 5 4 3 2 1 3 5 6 8 9 9 10
24 25 25 26 27 29 31 32 34 35 35 35 34 34 33 33 33 31 28 27 24 21 19 18 15 16 12 15 10 8 9 8 6 3 2 1 2 4 6 8 8 9 9
21 21 23 24 25 26 28 31 32 33 34 33 33 32 32 31 30 29 27 25 23 21 18 17 16 14 12 11 13 9 7 6 8 3 2 3 2 4 8 11 10 11 11
18 19 21 22 23 25 26 27 28 32 33 33 32 30 29 29 29 28 27 25 23 20 18 17 16 13 13 11 7 8 4 4 9 8 8 2 2 7 10 11 11 11 12
15 17 18 20 22 24 25 27 29 30 31 32 32 32 31 29 28 28 26 24 23 19 17 16 14 13 11 10 8 7 6 7 8 9 6 6 13 8 9 11 12 12 14
12 14 16 18 20 22 23 24 26 28 31 33 32 32 32 31 28 27 25 23 23 20 17 15 14 13 12 11 11 11 9 9 11 9 8 10 10 9 12 14 15 14 14
8 11 13 16 18 20 21 22 23 24 26 27 29 30 33 33 30 28 26 24 22 20 18 17 14 12 13 11 11 11 12 11 7 6 8 9 9 10 14 17 17 17 16
5 8 11 14 16 17 18 19 20 20 21 22 23 24 26 29 30 30 29 24 23 21 18 16 16 13 12 13 13 14 14 12 10 9 10 11 11 11 13 15 16 18 17
5 6 9 12 13 14 16 14 14 15 17 15 13 13 13 16 19 23 22 25 23 21 19 16 14 15 12 12 14 15 14 14 12 11 11 12 12 13 13 14 17 18 17
5 6 8 7 7 10 10 11 10 9 7 6 6 6 7 9 9 8 8 9 3 14 17 17 17 13 15 14 13 13 13 14 14 13 12 11 12 14 14 15 16 17 19
3 6 6 6 6 5 6 7 6 7 6 6 6 6 5 7 5 5 7 10 8 10 12 3 16 16 18 11 6 7 12 14 15 17 13 9 17 18 18 15 12 14 16
5 9 12 5 5 5 7 6 8 8 6 6 7 6 5 5 5 6 7 8 9 10 10 11 11 11 12 13 13 14 12 11 10 10 10 11 10 12 14 17 20 24 27
6 8 13 2 5 6 6 8 9 9 8 8 7 5 5 7 9 8 8 9 9 9 10 9 10 12 12 11 11 10 10 10 11 14 13 15 16 16 19 22 25 27 28
7 5 2 3 4 5 8 11 15 9 8 7 5 6 5 3 4 6 7 7 7 8 8 9 10 9 8 8 8 9 10 10 10 11 12 13 14 17 20 24 26 26 26
Wind_Direction
239 273 298 308 308 312 314 319 320 320 316 311 310 308 310 312 314 314 313 314 311 311 306 303 300 298 295 296 295 302 273 263 261 310 314 314 309 304 298 299 288 280 277
347 341 331 327 325 327 328 329 330 328 328 322 315 313 314 314 315 313 313 312 310 310 308 302 298 299 293 290 289 289 291 294 306 303 320 320 314 308 306 297 281 277 280
8 354 352 342 339 331 328 328 328 327 325 321 319 315 314 313 313 313 312 311 309 307 305 303 299 296 292 290 291 288 294 302 312 317 324 336 329 317 311 300 290 287 292
5 349 345 343 336 332 328 325 324 323 321 319 317 314 313 311 311 310 309 307 307 306 302 299 296 291 289 284 290 285 292 302 314 320 327 338 341 334 323 312 300 299 299
349 344 337 335 332 328 325 323 322 319 318 316 314 312 311 310 309 309 308 307 305 303 301 298 292 287 284 284 283 281 288 301 311 319 325 333 345 352 341 333 336 322 315
343 338 335 331 330 328 325 323 320 318 316 315 314 313 311 311 310 308 307 306 304 301 299 297 292 284 279 279 283 286 292 301 307 317 324 331 347 350 6 0 345 326 315
341 337 335 334 332 330 326 323 320 319 318 317 316 315 313 312 310 308 305 303 302 300 298 294 290 284 274 277 282 286 291 296 305 314 319 327 340 354 2 358 350 328 321
341 339 338 336 333 330 328 325 322 321 319 318 317 316 314 314 313 310 306 303 302 300 296 290 284 275 275 279 278 281 287 293 302 309 310 313 325 339 349 349 350 339 339
341 340 338 337 333 330 327 325 324 322 321 320 320 319 317 317 316 308 306 306 304 301 296 289 282 274 273 273 282 276 281 291 301 306 311 316 332 341 344 3 350 1 328
342 342 341 340 336 334 333 331 329 328 327 326 324 324 325 321 320 310 309 310 308 303 299 291 280 273 263 257 261 267 276 284 296 313 327 327 331 335 333 335 8 342 331
344 344 343 343 342 342 339 338 335 332 331 331 330 331 331 329 324 318 317 320 318 311 303 298 287 266 248 240 242 240 258 265 288 311 321 318 322 328 327 327 325 347 331
345 346 346 345 346 346 345 344 342 339 336 335 335 337 335 331 329 327 327 331 327 319 310 305 297 277 231 224 228 234 218 221 226 264 290 302 311 316 322 325 323 327 329
345 345 347 351 352 352 351 348 347 347 345 341 339 339 336 337 336 331 331 333 336 333 325 318 311 296 270 239 226 209 213 239 238 244 232 293 334 327 337 345 338 340 341
346 349 353 354 356 358 358 357 356 353 352 351 347 343 341 340 338 336 336 337 338 340 339 342 333 319 295 277 248 210 246 241 243 211 157 66 19 324 346 329 335 325 327
354 357 358 1 3 3 3 3 4 5 2 356 355 355 352 347 347 352 347 345 346 342 345 343 336 344 347 326 284 275 240 246 235 171 101 295 326 336 319 309 312 311 309
357 359 3 3 5 6 5 5 9 9 6 6 4 3 2 1 358 354 354 352 351 350 347 347 343 333 334 320 324 303 1 294 283 269 288 317 334 306 310 309 305 306 304
4 8 6 6 7 8 9 10 9 11 15 13 10 7 4 1 358 356 353 352 350 352 352 350 352 350 354 359 356 318 338 338 324 273 305 328 288 315 309 303 304 303 297
4 7 8 8 6 6 7 8 11 12 14 16 20 16 10 5 1 358 354 352 351 347 347 345 343 342 344 335 323 315 325 319 312 320 312 304 305 310 299 299 294 301 297
2 5 8 8 7 7 8 8 10 13 19 25 27 30 22 17 20 10 1 2 353 350 349 349 345 347 349 352 359 350 336 337 334 333 311 306 316 303 295 288 291 296 303
3 6 6 5 7 9 7 9 13 17 22 26 28 32 35 34 37 26 17 7 359 351 351 343 344 347 348 332 334 334 339 344 337 324 321 314 310 313 302 302 301 299 307
5 4 4 1 6 9 10 16 20 25 28 41 56 64 71 61 49 42 52 37 20 15 2 352 342 331 338 341 341 341 340 339 343 338 325 316 317 313 317 317 312 309 311
350 353 359 7 18 14 27 27 36 41 69 90 104 95 85 81 82 95 107 107 107 50 27 323 311 355 321 338 353 358 3 359 354 353 343 341 333 325 325 323 319 315 311
330 341 355 16 27 42 43 33 54 81 122 125 125 139 132 88 96 110 101 89 127 183 199 264 339 329 302 0 166 102 14 321 294 311 346 346 318 313 313 324 333 329 327
325 325 323 12 27 33 23 47 154 161 125 116 139 146 134 87 92 111 121 120 121 141 135 130 145 159 152 157 147 160 149 127 105 72 44 26 16 353 338 329 321 314 312
306 314 316 36 27 37 57 135 149 155 159 168 153 116 121 84 79 103 112 101 105 144 143 137 129 103 100 107 107 100 76 63 31 5 359 352 348 342 332 325 320 317 316
290 316 129 104 57 106 138 159 204 166 159 173 148 186 179 131 95 82 78 87 110 138 129 112 108 121 128 123 118 93 65 56 40 34 17 9 1 347 338 330 326 324 322